Regional Weather Roundup
Issued by NWS Jackson, KY

Home | Current Version | Previous Version | Text Only | Print | Product List | Glossary On
Versions: 1 2 3 4 5 6 7 8 9 10 11 12 13 14 15 16 17 18 19 20 21 22 23 24 25 26 27 28 29 30 31 32 33 34 35 36 37 38 39 40 41 42 43 44 45 46 47 48 49 50
000
ASUS43 KJKL 022319
RWRJKL

EAST KENTUCKY HOURLY WEATHER ROUNDUP
NATIONAL WEATHER SERVICE JACKSON KY
700 PM EDT TUE SEP 02 2014

NOTE: "FAIR" INDICATES FEW OR NO CLOUDS BELOW 12,000 FEET WITH
NO SIGNIFICANT WEATHER AND/OR OBSTRUCTIONS TO VISIBILITY.

* THESE REPORTS ARE NOT UNDER NWS QUALITY CONTROL AND MAY NOT
  REPORT WEATHER SUCH AS PRECIPITATION AND FOG.

KYZ079-080-083-085-087-088-110-112-115-119-120-030000
...EASTERN KENTUCKY...

CITY           SKY/WX    TMP DP  RH WIND       PRES   REMARKS
JACKSON        TSTM      69  66  90 CALM      29.98F FOG
LONDON         TSTM      73  69  87 S6        30.01R FOG
SOMERSET*      PTSUNNY   70  70 100 CALM      29.99S
MONTICELLO*    CLOUDY    71  69  93 CALM      30.02R
MIDDLESBORO*   CLOUDY    77  69  78 NW22G30   30.01R
HARLAN APT*    MOCLDY    73  70  88 MISG      29.97F
HAZARD APT*    LGT RAIN  70  70 100 CALM      29.98
BLACK MTN*       N/A     70  66  88 S3          N/A
PIKEVILLE APT* CLOUDY    72  70  94 W15G24    30.04R
BIG SANDY*     LGT RAIN  72  69  93 W5        30.01R
MOREHEAD APT*  CLOUDY    72  70  94 SW3       29.98R
ASHLAND*       CLOUDY    77  70  78 S6        29.93S
$$

KYZ035-036-041-042-044-050-067-078-099-030000
...CENTRAL KENTUCKY...

CITY           SKY/WX    TMP DP  RH WIND       PRES   REMARKS
MT STERLING*   CLOUDY    72  70  94 SW5       29.97S
FLEMING/MASON* LGT RAIN  72  70  94 CALM      29.97R
DANVILLE*      CLOUDY    73  70  88 SW5       29.96F
RICHMOND*      CLOUDY    73  70  88 SW3       29.95F
LEXINGTON      TSTM      73  69  87 SW6       29.96R FOG
FRANKFORT      PTSUNNY   76  70  82 N5        29.95R
$$

KYZ091>093-OHZ055-061-077-WVZ005-015-034-035-042-030000
...SOUTHERN OHIO/WEST VIRGINIA...

CITY           SKY/WX    TMP DP  RH WIND       PRES   REMARKS
COVINGTON      MOSUNNY   78  70  76 NW3       29.93F
COLUMBUS       MOSUNNY   78  65  63 W8        29.93S
DAYTON         PTSUNNY   78  66  66 NW6       29.94F
WILMINGTON     MOSUNNY   77  65  66 W3        29.93F
HUNTINGTON     TSTM      69  69 100 S3        29.96S FOG
CHARLESTON     TSTM      72  71  97 E5        29.98R
PINEVILLE*     CLOUDY    73  73 100 MISG      30.07S
BECKLEY        CLOUDY    67  64  90 SE6       30.06F
BLUEFIELD      MOCLDY    79  64  60 SW3       30.08S THUNDER
$$

VAZ002-007-008-TNZ017-027-036-066-071-030000
...SOUTHWEST VIRGINIA/EAST TENNESSEE...

CITY           SKY/WX    TMP DP  RH WIND       PRES   REMARKS
WISE*          MOSUNNY   77  64  65 SW8       30.06S
JONESVILLE*      N/A     84  70  61 CALM      29.99F
ABINGDON*      SUNNY     83  65  53 NW5       30.03R
BRISTOL        MOSUNNY   86  62  44 W8        29.99S
KNOXVILLE      MOSUNNY   87  69  54 W9        29.95F HX  91
OAK RIDGE      MOSUNNY   88  69  53 SW5       29.97F HX  92
CROSSVILLE     PTSUNNY   81  67  62 W6        30.03S
NASHVILLE      PTSUNNY   77  73  88 W5        29.96R THUNDER
$$

...KEY TO REMARKS...
VSB - VISIBILITY IN MILES
WCI - WIND CHILL INDEX
HX  - HEAT INDEX

$$


USA.gov is the U.S. government's official web portal to all federal, state and local government web resources and services.